TimeMST,TemperatureF,Dew PointF,Humidity,Sea Level PressureIn,VisibilityMPH,Wind Direction,Wind SpeedMPH,Gust SpeedMPH,PrecipitationIn,Events,Conditions,WindDirDegrees,DateUTC
12:55 AM,7.0,3.9,87,29.91,10.0,WNW,3.5,-,N/A,,Clear,290,2012-12-12 07:55:00
1:55 AM,6.1,3.0,87,29.92,10.0,Calm,Calm,-,N/A,,Clear,0,2012-12-12 08:55:00
2:55 AM,9.0,6.1,88,29.92,10.0,North,3.5,-,N/A,,Clear,350,2012-12-12 09:55:00
3:55 AM,12.0,6.1,77,29.90,10.0,West,5.8,-,N/A,,Clear,280,2012-12-12 10:55:00
4:55 AM,9.0,5.0,84,29.95,10.0,North,4.6,-,N/A,,Clear,360,2012-12-12 11:55:00
5:55 AM,8.1,5.0,87,29.95,10.0,North,6.9,-,N/A,,Clear,350,2012-12-12 12:55:00
6:55 AM,12.9,8.1,81,29.93,10.0,North,5.8,-,N/A,,Clear,10,2012-12-12 13:55:00
7:55 AM,23.0,15.1,72,29.91,10.0,NNW,3.5,-,N/A,,Clear,330,2012-12-12 14:55:00
8:55 AM,30.9,19.0,61,29.91,10.0,Calm,Calm,-,N/A,,Clear,0,2012-12-12 15:55:00
9:55 AM,39.0,17.1,41,29.89,10.0,Calm,Calm,-,N/A,,Clear,0,2012-12-12 16:55:00
10:55 AM,46.0,15.1,29,29.87,10.0,Calm,Calm,-,N/A,,Clear,0,2012-12-12 17:55:00
11:55 AM,54.0,12.0,19,29.83,10.0,Variable,5.8,-,N/A,,Clear,0,2012-12-12 18:55:00
12:55 PM,57.9,9.0,14,29.80,10.0,SSW,8.1,-,N/A,,Clear,210,2012-12-12 19:55:00
1:55 PM,57.9,8.1,14,29.79,10.0,SW,17.3,24.2,N/A,,Clear,220,2012-12-12 20:55:00
2:55 PM,57.9,7.0,13,29.78,10.0,SSW,17.3,24.2,N/A,,Clear,210,2012-12-12 21:55:00
3:55 PM,54.0,9.0,17,29.82,10.0,South,10.4,-,N/A,,Clear,190,2012-12-12 22:55:00
4:55 PM,48.9,12.0,23,29.86,10.0,SW,12.7,-,N/A,,Clear,230,2012-12-12 23:55:00
5:55 PM,44.1,12.0,27,29.91,10.0,SW,8.1,-,N/A,,Clear,230,2012-12-13 00:55:00
6:55 PM,26.1,9.0,49,29.97,10.0,North,4.6,-,N/A,,Clear,350,2012-12-13 01:55:00
7:55 PM,39.9,12.0,32,29.89,10.0,West,8.1,-,N/A,,Clear,280,2012-12-13 02:55:00
8:55 PM,33.1,10.0,38,29.90,10.0,Calm,Calm,-,N/A,,Clear,0,2012-12-13 03:55:00
9:55 PM,42.1,9.0,26,29.86,10.0,SW,10.4,-,N/A,,Clear,230,2012-12-13 04:55:00
10:55 PM,35.1,10.0,35,29.88,10.0,West,8.1,-,N/A,,Clear,270,2012-12-13 05:55:00
11:55 PM,41.0,10.0,28,29.83,10.0,SSW,6.9,-,N/A,,Clear,210,2012-12-13 06:55:00